Weather History for KLBF - April, 2013

Change the Weather History Date:

Monday, April 22, 2013

  Actual Average Record
Temperature  
Mean Temperature 36 °F 50 °F  
Max Temperature 43 °F 64 °F 93 °F (1989)
Min Temperature 28 °F 35 °F 20 °F (1967)
Degree Days  
Heating Degree Days 29 15  
Month to date heating degree days 542 414  
Since 1 July heating degree days 6375 6279  
Cooling Degree Days 0 0  
Month to date cooling degree days 0 0  
Year to date cooling degree days 0 0  
Moisture  
Dew Point 30 °F    
Average Humidity 81    
Maximum Humidity 92    
Minimum Humidity 69    
Precipitation  
Precipitation 0.02 in 0.09 in 2.80 in (1890)
Month to date precipitation 1.27 1.56  
Year to date precipitation 3.04 3.45  
Snow  
Snow 0.00 in 0.10 in 3.60 in (1887)
Month to date snowfall 6.7 2.8  
Since 1 July snowfall 29.3 28.1  
Snow Depth 0.00 in    
Sea Level Pressure  
Sea Level Pressure 30.12 in    
Wind  
Wind Speed 19 mph (NE)    
Max Wind Speed 36 mph    
Max Gust Speed 43 mph    
Visibility 8 miles    
Events Rain    
T = Trace of Precipitation, MM = Missing Value Source: NWS Daily Summary

Daily Weather History Graph

Daily Weather History Graph

Search for Another Location

Airport or City:

Trip Planner

Search our weather history database for the weather conditions in past years. The results will help you decide how hot, cold, wet, or windy it might be!

Date:

Astronomy

Apr. 22, 2013 Rise Set
Actual Time 6:52 AM CDT 8:30 PM CDT
Civil Twilight 6:23 AM CDT 8:59 PM CDT
Nautical Twilight 5:48 AM CDT 9:35 PM CDT
Astronomical Twilight 5:10 AM CDT 10:12 PM CDT
Moon 5:19 PM CDT (4/22) 4:49 AM CDT (4/22)
Length of Visible Light 14h 36m
Length of Day
13h 37m
Waxing Gibbous, 88% of the Moon is Illuminated
Apr 22
Waxing Gibbous
Apr 25
Full
May 2
Last Quarter
May 9
New
May 17
First Quarter

Hourly Weather History & Observations

Time (CDT) Temp. Windchill Dew Point Humidity Pressure Visibility Wind Dir Wind Speed Gust Speed Precip Events Conditions
12:15 AM 42.8 °F 37.5 °F 39.2 °F 87% 30.05 in 10.0 mi East 9.2 mph - N/A   Mostly Cloudy
12:53 AM 42.1 °F 35.7 °F 39.0 °F 89% 30.05 in 10.0 mi East 11.5 mph - N/A   Overcast
1:00 AM 42.8 °F 36.6 °F 39.2 °F 87% 30.06 in 10.0 mi East 11.5 mph - N/A   Overcast
1:53 AM 42.1 °F 36.6 °F 39.0 °F 89% 30.06 in 10.0 mi SSE 9.2 mph - N/A   Overcast
2:53 AM 41.0 °F 33.5 °F 37.9 °F 89% 30.01 in 10.0 mi East 13.8 mph - N/A   Overcast
3:19 AM 41.0 °F 34.3 °F 37.4 °F 87% 30.01 in 10.0 mi East 11.5 mph - N/A   Overcast
3:53 AM 41.0 °F 33.1 °F 37.0 °F 86% 29.97 in 10.0 mi East 15.0 mph - N/A   Overcast
4:53 AM 39.9 °F 32.5 °F 37.9 °F 93% 29.96 in 9.0 mi ENE 12.7 mph - N/A   Overcast
5:26 AM 39.2 °F 31.2 °F 37.4 °F 93% 29.96 in 1.8 mi East 13.8 mph - N/A   Overcast
5:53 AM 39.0 °F 31.0 °F 37.0 °F 93% 29.95 in 1.2 mi East 13.8 mph - N/A   Overcast
6:53 AM 39.0 °F 31.4 °F 37.9 °F 96% 29.96 in 1.0 mi East 12.7 mph - N/A   Overcast
7:26 AM 39.2 °F 35.0 °F 37.4 °F 93% 29.99 in 0.8 mi East 5.8 mph - N/A   Overcast
7:35 AM 39.2 °F 32.5 °F 37.4 °F 93% 29.98 in 1.0 mi East 10.4 mph - N/A   Overcast
7:53 AM 39.0 °F 34.0 °F 37.9 °F 96% 30.01 in 1.5 mi ENE 6.9 mph - 0.00 in Rain Light Rain
8:53 AM 37.0 °F 27.4 °F 35.1 °F 93% 30.01 in 2.5 mi NE 17.3 mph - 0.01 in Rain Light Rain
8:58 AM 37.4 °F 28.5 °F 35.6 °F 93% 29.98 in 3.0 mi NE 15.0 mph - 0.00 in Rain Light Rain
9:53 AM 36.0 °F 25.0 °F 33.1 °F 89% 30.02 in 10.0 mi NE 20.7 mph 28.8 mph 0.01 in Rain Light Rain
10:53 AM 32.0 °F 18.6 °F 28.9 °F 88% 30.08 in 10.0 mi NNE 25.3 mph 29.9 mph 0.00 in   Overcast
11:53 AM 30.9 °F 16.9 °F 26.1 °F 82% 30.12 in 10.0 mi NNE 26.5 mph 38.0 mph N/A   Overcast
12:49 PM 28.4 °F 12.7 °F 24.8 °F 86% 30.10 in 6.0 mi NNE 29.9 mph 35.7 mph 0.00 in Rain Light Freezing Rain
12:53 PM 28.9 °F 13.0 °F 25.0 °F 85% 30.15 in 6.0 mi NNE 32.2 mph 39.1 mph 0.00 in Rain Light Freezing Rain
1:00 PM 28.4 °F 13.0 °F 24.8 °F 86% 30.09 in 7.0 mi NNE 28.8 mph 41.4 mph 0.00 in Rain Light Freezing Rain
1:19 PM 30.2 °F 15.7 °F 24.8 °F 80% 30.10 in 10.0 mi NNE 27.6 mph 39.1 mph 0.00 in   Overcast
1:34 PM 30.2 °F 16.2 °F 26.6 °F 86% 30.11 in 10.0 mi NNE 25.3 mph 40.3 mph 0.00 in   Overcast
1:53 PM 30.9 °F 17.2 °F 25.0 °F 79% 30.16 in 10.0 mi NNE 25.3 mph 39.1 mph 0.00 in   Overcast
2:29 PM 32.0 °F 18.4 °F 24.8 °F 75% 30.14 in 10.0 mi North 26.5 mph 33.4 mph N/A   Overcast
2:53 PM 32.0 °F 18.9 °F 25.0 °F 75% 30.19 in 10.0 mi NNE 24.2 mph 32.2 mph N/A   Overcast
3:53 PM 30.9 °F 17.5 °F 23.0 °F 72% 30.23 in 10.0 mi North 24.2 mph 31.1 mph N/A   Overcast
4:53 PM 30.9 °F 17.5 °F 23.0 °F 72% 30.23 in 10.0 mi North 24.2 mph 33.4 mph N/A   Overcast
5:53 PM 30.9 °F 16.9 °F 23.0 °F 72% 30.25 in 10.0 mi North 26.5 mph 34.5 mph N/A   Overcast
6:53 PM 30.9 °F 18.7 °F 21.9 °F 69% 30.29 in 10.0 mi North 19.6 mph 31.1 mph N/A   Overcast
7:53 PM 30.0 °F 16.9 °F 21.0 °F 69% 30.30 in 10.0 mi NNE 21.9 mph - N/A   Overcast
8:53 PM 28.9 °F 16.5 °F 21.0 °F 72% 30.35 in 10.0 mi North 18.4 mph 28.8 mph N/A   Overcast
9:53 PM 28.9 °F 16.1 °F 21.0 °F 72% 30.38 in 10.0 mi North 19.6 mph 27.6 mph N/A   Overcast
10:53 PM 28.0 °F 16.5 °F 21.0 °F 75% 30.42 in 10.0 mi North 15.0 mph - N/A   Overcast
11:53 PM 28.0 °F 17.0 °F 21.0 °F 75% 30.40 in 10.0 mi North 13.8 mph - N/A   Overcast